Regional Weather Roundup
Issued by NWS

Home | Current Version | Previous Version | Graphics & Text | Print | Product List | Glossary On
Versions: 1 2 3 4 5 6 7 8 9 10 11 12 13 14 15 16 17 18 19 20 21 22 23 24 25 26 27 28 29 30 31 32 33 34 35 36 37 38 39 40 41 42 43 44 45 46 47 48 49 50
710
ASUS45 KBOI 260410
RWRID

IDAHO REGIONAL WEATHER ROUNDUP
NATIONAL WEATHER SERVICE BOISE ID
900 PM MST SAT FEB 25 2017

NOTE: "FAIR" INDICATES FEW OR NO CLOUDS BELOW 12000 FEET
WITH NO SIGNIFICANT WEATHER AND/OR OBSTRUCTIONS TO VISIBILITY

IDZ012-014-260500-
SOUTHWEST IDAHO


CITY           SKY/WX    TMP DP  RH WIND       PRES   REMARKS
BOISE          CLOUDY    30  17  58 SE7       29.99F WCI  23
CALDWELL       CLEAR     31  21  66 SE7       30.00F WCI  24
MOUNTAIN HOME  CLEAR     27  19  74 CALM      29.99F
$$

IDZ016-017-260500-
SOUTHCENTRAL IDAHO


CITY           SKY/WX    TMP DP  RH WIND       PRES   REMARKS
BURLEY         CLEAR     25  14  63 SW10      29.96F WCI  15
JEROME           N/A    N/A N/A N/A MISG      29.98S
TWIN FALLS     CLEAR     18   8  65 S14       29.97F WCI   4
$$

IDZ019>023-260500-
SOUTHEAST IDAHO


CITY           SKY/WX    TMP DP  RH WIND       PRES   REMARKS
IDAHO FALLS    CLEAR     17  12  80 S10       29.92S WCI   5
POCATELLO      CLEAR     20   9  62 S14       29.95F WCI   7
REXBURG        PTCLDY    16  11  80 SW7       29.91R WCI   6
$$

IDZ006-010-011-018-031-032-260500-
CENTRAL IDAHO MOUNTAINS


CITY           SKY/WX    TMP DP  RH WIND       PRES   REMARKS
MCCALL         PTCLDY    20   9  62 SE5       29.86F WCI  13
HAILEY         CLEAR     10   7  85 NW7       29.91S WCI   0
STANLEY          N/A     12   7  80 S5        29.86S WCI   4
SALMON         CLOUDY    25  12  58 SW7       29.87S WCI  17
CHALLIS        MOCLDY    20   7  57 SW12      29.86S WCI   8
$$

IDZ002-004-006-007-026-260500-
NORTHERN IDAHO


CITY           SKY/WX    TMP DP  RH WIND       PRES   REMARKS
LEWISTON       CLOUDY    35  25  66 CALM      29.94F
LOWELL           N/A     32  28  85 CALM      30.00F
COEUR D`ALENE  CLOUDY    31  25  78 S8        29.87F WCI  23
MULLAN PASS    LGT SNOW  14  13  95 VRB7      29.70F FOG     WCI   4
$$




USA.gov is the U.S. government's official web portal to all federal, state and local government web resources and services.